Weather History for Houma, LA

Change the Weather History Date:

Friday, February 21, 2014

  Actual Average Record
Temperature  
Mean Temperature 58 °F -  
Max Temperature 72 °F 68 °F 81 °F (1944)
Min Temperature 44 °F 50 °F 32 °F (1942)
Degree Days  
Heating Degree Days 7    
Growing Degree Days 8 (Base 50)    
Moisture  
Dew Point 42 °F    
Average Humidity 65    
Maximum Humidity 93    
Minimum Humidity 19    
Precipitation  
Precipitation 0.43 in - - ()
Sea Level Pressure  
Sea Level Pressure 30.07 in    
Wind  
Wind Speed 11 mph (North)    
Max Wind Speed 31 mph    
Max Gust Speed 44 mph    
Visibility 8 miles    
Events Rain , Thunderstorm    
Averages and records for this station are not official NWS values.
T = Trace of Precipitation, MM = Missing Value Source: NWS Daily Summary

Daily Weather History Graph

Daily Weather History Graph

Search for Another Location

Airport:

Trip Planner

Search our weather history database for the weather conditions in past years. The results will help you decide how hot, cold, wet, or windy it might be!

Date:

Astronomy

Feb. 21, 2014 Rise Set
Actual Time 6:36 AM CST 5:56 PM CST
Civil Twilight 6:12 AM CST 6:20 PM CST
Nautical Twilight 5:44 AM CST 6:48 PM CST
Astronomical Twilight 5:16 AM CST 7:16 PM CST
Moon No Moon Rise 10:30 AM CST (2/21)
Length of Visible Light 12h 08m
Length of Day
11h 20m
Waning Gibbous, 60% of the Moon is Illuminated
Feb 21
Waning Gibbous
Feb 22
Last Quarter
Mar 1
New
Mar 8
First Quarter
Mar 16
Full

Hourly Weather History & Observations

Time (CST) Temp. Dew Point Humidity Pressure Visibility Wind Dir Wind Speed Gust Speed Precip Events Conditions
12:15 AM 72.0 °F 68.4 °F 88% 29.92 in 7.0 mi SSW 11.5 mph 19.6 mph 0.02 in Rain , Thunderstorm Rain
12:35 AM 72.0 °F 68.5 °F 89% 29.92 in 7.0 mi SSW 10.4 mph 17.3 mph 0.05 in Rain , Thunderstorm Thunderstorms and Rain
12:55 AM 71.8 °F 68.5 °F 89% 29.89 in 5.0 mi South 10.4 mph 17.3 mph 0.12 in Rain , Thunderstorm Rain
1:15 AM 71.4 °F 68.4 °F 90% 29.90 in 7.0 mi SSW 9.2 mph - 0.02 in Rain , Thunderstorm Light Thunderstorms and Rain
1:35 AM 71.2 °F 68.9 °F 92% 29.92 in 7.0 mi SW 10.4 mph 16.1 mph 0.02 in Thunderstorm Unknown
1:55 AM 62.6 °F 59.5 °F 90% 29.95 in 7.0 mi NNW 31.1 mph 43.7 mph 0.05 in Rain , Thunderstorm Heavy Thunderstorms and Rain
2:15 AM 59.5 °F 57.4 °F 93% 29.99 in 2.5 mi North 18.4 mph 27.6 mph 0.23 in Rain , Thunderstorm Heavy Thunderstorms and Rain
2:35 AM 57.0 °F 54.9 °F 92% 29.99 in 7.0 mi North 13.8 mph 24.2 mph 0.26 in Rain , Thunderstorm Light Thunderstorms and Rain
2:55 AM 57.4 °F 55.4 °F 93% 30.02 in 7.0 mi NNW 10.4 mph 17.3 mph 0.26 in   Unknown
3:15 AM 57.6 °F 55.6 °F 93% 30.01 in 10.0 mi NNW 12.7 mph 18.4 mph N/A   Unknown
3:35 AM 56.8 °F 54.5 °F 92% 30.01 in 10.0 mi North 13.8 mph 21.9 mph N/A   Unknown
3:55 AM 53.2 °F 49.5 °F 87% 30.02 in 7.0 mi North 24.2 mph 38.0 mph N/A   Unknown
4:15 AM 52.9 °F 49.5 °F 88% 30.03 in 10.0 mi North 20.7 mph 27.6 mph N/A   Unknown
4:35 AM 55.4 °F 44.1 °F 66% 30.04 in 10.0 mi North 19.6 mph 27.6 mph N/A   Unknown
4:55 AM 55.8 °F 41.5 °F 59% 30.06 in 10.0 mi North 18.4 mph 24.2 mph N/A   Unknown
5:50 AM 53.6 °F 37.4 °F 54% 30.08 in 7.0 mi North 17.3 mph - N/A   Scattered Clouds
6:50 AM 51.8 °F 33.8 °F 50% 30.11 in 7.0 mi North 13.8 mph - N/A   Scattered Clouds
7:50 AM 55.4 °F 32.0 °F 41% 30.13 in 7.0 mi North 20.7 mph - N/A   Scattered Clouds
8:50 AM 57.2 °F 28.4 °F 33% 30.14 in 7.0 mi North 16.1 mph - N/A   Clear
9:50 AM 60.8 °F 28.4 °F 29% 30.15 in 7.0 mi NE 17.3 mph - N/A   Clear
10:50 AM 60.8 °F 19.4 °F 20% 30.15 in 7.0 mi NE 17.3 mph - N/A   Clear
11:50 AM 62.6 °F 21.2 °F 20% 30.14 in 7.0 mi NNE 17.3 mph - N/A   Clear
12:50 PM 64.4 °F 24.8 °F 22% 30.11 in 7.0 mi NE 17.3 mph - N/A   Clear
1:50 PM 64.4 °F 24.8 °F 22% 30.10 in 7.0 mi NE 13.8 mph - N/A   Clear
2:50 PM 66.2 °F 23.0 °F 19% 30.09 in 7.0 mi NNE 9.2 mph - N/A   Clear
3:50 PM 64.4 °F 21.2 °F 19% 30.09 in 7.0 mi NNE 9.2 mph - N/A   Clear
4:50 PM 64.4 °F 23.0 °F 21% 30.09 in 7.0 mi NE 6.9 mph - N/A   Clear
5:50 PM 59.0 °F 26.6 °F 29% 30.09 in 7.0 mi NNE 4.6 mph - N/A   Clear
6:15 PM 56.8 °F 30.2 °F 36% 30.09 in 7.0 mi Calm Calm - N/A   Unknown
6:35 PM 54.5 °F 34.0 °F 46% 30.09 in 10.0 mi Calm Calm - N/A   Unknown
6:50 PM 53.6 °F 39.2 °F 58% 30.09 in 7.0 mi NNE 3.5 mph - N/A   Clear
6:55 PM 52.0 °F 35.4 °F 53% 30.10 in 10.0 mi Calm Calm - N/A   Unknown
7:15 PM 52.0 °F 41.5 °F 68% 30.10 in 7.0 mi Calm Calm - N/A   Unknown
7:35 PM 50.2 °F 39.9 °F 68% 30.10 in 10.0 mi Calm Calm - N/A   Unknown
7:55 PM 50.9 °F 40.1 °F 67% 30.10 in 10.0 mi Calm Calm - N/A   Unknown
8:15 PM 49.1 °F 39.9 °F 71% 30.10 in 10.0 mi Calm Calm - N/A   Unknown
8:35 PM 50.0 °F 41.5 °F 73% 30.10 in 7.0 mi Calm Calm - N/A   Unknown
8:55 PM 48.6 °F 40.3 °F 73% 30.10 in 7.0 mi Calm Calm - N/A   Unknown
9:15 PM 48.2 °F 42.3 °F 80% 30.10 in 10.0 mi Calm Calm - N/A   Unknown
9:35 PM 46.8 °F 41.5 °F 82% 30.11 in 7.0 mi Calm Calm - N/A   Unknown
9:55 PM 46.8 °F 40.6 °F 79% 30.11 in 10.0 mi Calm Calm - N/A   Unknown
10:15 PM 45.5 °F 40.3 °F 82% 30.11 in 10.0 mi Calm Calm - N/A   Unknown
10:35 PM 45.0 °F 40.8 °F 85% 30.11 in 10.0 mi Calm Calm - N/A   Unknown
10:55 PM 44.8 °F 40.3 °F 84% 30.11 in 7.0 mi Calm Calm - N/A   Unknown
11:15 PM 44.4 °F 39.9 °F 84% 30.11 in 7.0 mi Calm Calm - N/A   Unknown
11:35 PM 45.0 °F 41.0 °F 86% 30.11 in 7.0 mi Calm Calm - N/A   Unknown
11:55 PM 44.4 °F 40.5 °F 86% 30.10 in 7.0 mi Calm Calm - N/A   Unknown